FW9262 Weather Reports


time (UTC)temp
C
wind
direction
speed
KPH
gust
KPH
rain 1hr
cm
rain 24hr
cm
rain mn
cm
humidity
%
barometer
mb
20260506012205 16 298 3.2 4.8 0.00 0.00 0.00 70 1016.6
20260506011702 16 309 3.2 4.8 0.00 0.00 0.00 69 1017.0
20260506011158 16 262 3.2 3.2 0.00 0.00 0.00 70 1017.0
20260506010657 16 238 3.2 6.4 0.00 0.00 0.00 70 1017.3
20260506010154 17 181 3.2 3.2 0.00 0.00 0.00 69 1017.0
20260506005651 17 178 3.2 3.2 0.00 0.00 0.00 69 1016.6
20260506005147 17 311 1.6 3.2 0.00 0.00 0.00 69 1017.0
20260506004643 17 335 1.6 6.4 0.00 0.00 0.00 67 1017.0
20260506004141 17 256 3.2 3.2 0.00 0.00 0.00 66 1017.0
20260506003637 17 258 0.0 3.2 0.00 0.00 0.00 66 1017.0
20260506003133 17 335 0.0 3.2 0.00 0.00 0.00 66 1016.6
20260506002630 17 209 6.4 9.7 0.00 0.00 0.00 65 1016.6
20260506002126 17 303 4.8 9.7 0.00 0.00 0.00 66 1016.6
20260506001621 17 248 3.2 6.4 0.00 0.00 0.00 66 1016.6
20260506001119 17 214 3.2 6.4 0.00 0.00 0.00 65 1017.0
20260506000616 17 279 6.4 9.7 0.00 0.00 0.00 65 1016.6
20260506000113 17 216 4.8 6.4 0.00 0.00 0.00 63 1016.6
20260505235612 17 189 3.2 11.3 0.00 0.00 0.00 63 1016.6
20260505235108 17 306 6.4 9.7 0.00 0.00 0.00 63 1017.0
20260505234605 17 209 6.4 6.4 0.00 0.00 0.00 63 1016.6
20260505234102 17 129 3.2 9.7 0.00 0.00 0.00 65 1016.6
20260505233600 17 286 3.2 11.3 0.00 0.00 0.00 66 1017.0
20260505233057 17 228 6.4 11.3 0.00 0.00 0.00 67 1017.0
20260505232555 17 278 3.2 9.7 0.00 0.00 0.00 67 1017.0
20260505232052 16 274 4.8 6.4 0.00 0.00 0.00 68 1016.6
20260505231548 16 267 8.0 9.7 0.00 0.00 0.00 68 1017.0
20260505231047 16 231 3.2 9.7 0.00 0.00 0.00 69 1016.6
20260505230544 16 275 6.4 9.7 0.00 0.00 0.00 68 1017.0
20260505230041 16 298 1.6 4.8 0.00 0.00 0.00 69 1017.0
20260505225537 16 311 6.4 9.7 0.00 0.00 0.00 68 1017.0
20260505225033 17 110 4.8 11.3 0.00 0.00 0.00 67 1017.0
20260505224531 17 255 8.0 11.3 0.00 0.00 0.00 66 1017.3
20260505224028 17 278 3.2 4.8 0.00 0.00 0.00 66 1017.0
20260505223525 18 193 6.4 9.7 0.00 0.00 0.00 65 1017.0
20260505223021 17 300 1.6 9.7 0.00 0.00 0.00 64 1017.0
20260505222518 17 312 3.2 12.9 0.00 0.00 0.00 65 1017.3
20260505222013 18 237 3.2 11.3 0.00 0.00 0.00 64 1017.3
20260505221511 17 192 6.4 11.3 0.00 0.00 0.00 65 1017.3
20260505221008 18 342 4.8 6.4 0.00 0.00 0.00 63 1017.3
20260505220504 17 258 12.9 14.5 0.00 0.00 0.00 65 1017.3
20260505220002 17 242 9.7 16.1 0.00 0.00 0.00 64 1017.3
20260505215500 17 239 9.7 17.7 0.00 0.00 0.00 64 1017.3
20260505214958 18 277 6.4 14.5 0.00 0.00 0.00 63 1017.6
20260505214456 18 216 8.0 11.3 0.00 0.00 0.00 63 1017.3
20260505213952 18 179 4.8 12.9 0.00 0.00 0.00 64 1017.3
20260505213450 17 289 0.0 12.9 0.00 0.00 0.00 65 1017.3
20260505212946 18 253 11.3 20.9 0.00 0.00 0.00 65 1017.6
20260505212443 18 330 1.6 12.9 0.00 0.00 0.00 66 1017.6
20260505211939 18 209 8.0 12.9 0.00 0.00 0.00 65 1017.3
20260505211437 18 273 1.6 12.9 0.00 0.00 0.00 64 1017.6
20260505210933 18 354 3.2 4.8 0.00 0.00 0.00 62 1017.6
20260505210431 18 247 6.4 14.5 0.00 0.00 0.00 59 1017.6
20260505205927 18 260 9.7 14.5 0.00 0.00 0.00 60 1017.3
20260505205426 18 198 4.8 12.9 0.00 0.00 0.00 61 1017.6
20260505204922 18 237 8.0 14.5 0.00 0.00 0.00 59 1017.6
20260505204420 18 252 8.0 16.1 0.00 0.00 0.00 59 1017.6
20260505203917 18 235 6.4 12.9 0.00 0.00 0.00 64 1017.3
20260505203413 18 170 9.7 16.1 0.00 0.00 0.00 61 1017.3
20260505202910 18 189 9.7 16.1 0.00 0.00 0.00 62 1017.3
20260505202406 18 242 6.4 16.1 0.00 0.00 0.00 62 1017.3
20260505201903 18 283 4.8 12.9 0.00 0.00 0.00 65 1017.3
20260505201400 17 356 6.4 14.5 0.00 0.00 0.00 67 1017.6
20260505200858 17 265 6.4 14.5 0.00 0.00 0.00 67 1017.6
20260505200355 17 235 6.4 11.3 0.00 0.00 0.00 67 1017.6
20260505195850 18 284 3.2 12.9 0.00 0.00 0.00 65 1017.6
20260505195348 18 286 4.8 14.5 0.00 0.00 0.00 63 1017.6
20260505194845 19 238 8.0 11.3 0.00 0.00 0.00 59 1017.6
20260505194342 18 239 3.2 6.4 0.00 0.00 0.00 64 1017.6
20260505193837 18 261 4.8 11.3 0.00 0.00 0.00 59 1017.6
20260505193336 18 287 3.2 12.9 0.00 0.00 0.00 61 1017.6
20260505192833 18 203 8.0 11.3 0.00 0.00 0.00 63 1017.6
20260505192331 18 294 3.2 12.9 0.00 0.00 0.00 63 1017.6
20260505191828 17 278 3.2 11.3 0.00 0.00 0.00 65 1017.6
20260505191327 17 273 3.2 12.9 0.00 0.00 0.00 62 1017.6
20260505190823 18 190 8.0 12.9 0.00 0.00 0.00 63 1017.6
20260505190319 18 306 3.2 12.9 0.00 0.00 0.00 63 1017.6
20260505185815 17 263 4.8 12.9 0.00 0.00 0.00 65 1018.0
20260505185311 18 246 6.4 11.3 0.00 0.00 0.00 65 1017.6
20260505184807 18 261 4.8 16.1 0.00 0.00 0.00 63 1017.6
20260505184305 18 286 6.4 6.4 0.00 0.00 0.00 64 1017.6
20260505183801 18 26 1.6 12.9 0.00 0.00 0.00 66 1017.6
20260505183258 17 217 4.8 11.3 0.00 0.00 0.00 67 1017.6
20260505182755 17 265 4.8 11.3 0.00 0.00 0.00 66 1017.6
20260505182252 17 323 1.6 9.7 0.00 0.00 0.00 68 1017.6
20260505181748 17 260 6.4 12.9 0.00 0.00 0.00 67 1017.6
20260505181246 17 267 8.0 11.3 0.00 0.00 0.00 66 1017.6
20260505180742 17 262 4.8 11.3 0.00 0.00 0.00 68 1017.6
20260505180239 17 302 4.8 6.4 0.00 0.00 0.00 66 1017.3
20260505175735 17 332 1.6 3.2 0.00 0.00 0.00 67 1017.3
20260505175232 17 349 1.6 12.9 0.00 0.00 0.00 69 1017.6
20260505174729 17 311 1.6 3.2 0.00 0.00 0.00 70 1017.3
20260505174226 17 221 6.4 9.7 0.00 0.00 0.00 70 1017.3
20260505173721 18 257 6.4 11.3 0.00 0.00 0.00 67 1017.3
20260505173219 17 280 3.2 4.8 0.00 0.00 0.00 69 1017.0
20260505172715 16 340 1.6 6.4 0.00 0.00 0.00 70 1017.6
20260505172212 17 289 3.2 6.4 0.00 0.00 0.00 68 1017.3
20260505171712 17 261 4.8 6.4 0.00 0.00 0.00 69 1017.3
20260505171210 18 243 4.8 9.7 0.00 0.00 0.00 67 1017.3
20260505170706 17 317 0.0 4.8 0.00 0.00 0.00 67 1017.0
20260505170203 17 349 3.2 9.7 0.00 0.00 0.00 68 1017.3
20260505165658 17 230 3.2 11.3 0.00 0.00 0.00 68 1017.0
20260505165154 18 235 4.8 6.4 0.00 0.00 0.00 64 1017.0
20260505164649 17 307 3.2 11.3 0.00 0.00 0.00 70 1017.0
20260505164147 17 329 3.2 6.4 0.00 0.00 0.00 70 1017.0
20260505163645 17 293 1.6 3.2 0.00 0.00 0.00 69 1017.0
20260505163143 17 241 6.4 9.7 0.00 0.00 0.00 68 1017.0
20260505162640 16 206 3.2 3.2 0.00 0.00 0.00 69 1017.0
20260505162138 16 256 4.8 9.7 0.00 0.00 0.00 70 1016.6
20260505161635 17 331 3.2 11.3 0.00 0.00 0.00 69 1016.6
20260505161132 17 353 3.2 4.8 0.00 0.00 0.00 68 1016.6
20260505160630 17 212 6.4 9.7 0.00 0.00 0.00 67 1016.6
20260505160127 17 356 0.0 6.4 0.00 0.00 0.00 67 1016.6
20260505153107 17 260 3.2 4.8 0.00 0.00 0.00 69 1016.3
20260505152603 17 325 1.6 3.2 0.00 0.00 0.00 69 1016.6
20260505152058 16 265 1.6 3.2 0.00 0.00 0.00 70 1016.6
20260505151554 16 343 0.0 1.6 0.00 0.00 0.00 72 1016.6
20260505151052 16 340 0.0 3.2 0.00 0.00 0.00 72 1016.3
20260505150548 16 317 0.0 3.2 0.00 0.00 0.00 71 1016.6
20260505140513 14 353 0.0 0.0 0.00 0.00 0.00 88 1016.0
20260505124926 13 334 0.0 0.0 0.00 0.00 0.00 88 1016.0
20260505124423 13 334 0.0 1.6 0.00 0.00 0.00 88 1016.0
20260505123919 12 320 0.0 0.0 0.00 0.00 0.00 88 1016.0
20260505123416 12 333 0.0 0.0 0.00 0.00 0.00 88 1015.6
20260505122912 12 335 0.0 0.0 0.00 0.00 0.00 88 1015.6
20260505122409 12 337 0.0 0.0 0.00 0.00 0.00 88 1016.0
20260505121906 12 337 0.0 0.0 0.00 0.00 0.00 88 1016.0
20260505121403 12 337 0.0 0.0 0.00 0.00 0.00 87 1016.0
20260505120859 13 339 0.0 0.0 0.00 0.00 0.00 87 1016.0
20260505120355 13 337 0.0 0.0 0.00 0.00 0.00 87 1016.0
20260505115854 13 335 0.0 0.0 0.00 0.00 0.00 86 1016.0
20260505115351 13 336 0.0 0.0 0.00 0.00 0.00 86 1016.0
20260505114849 13 337 0.0 0.0 0.00 0.00 0.00 86 1016.0
20260505114346 13 321 0.0 0.0 0.00 0.00 0.00 86 1016.0
20260505113842 13 325 0.0 0.0 0.00 0.00 0.00 86 1016.0
20260505113339 13 332 0.0 0.0 0.00 0.00 0.00 85 1016.0
20260505112834 13 307 0.0 0.0 0.00 0.00 0.00 85 1016.0
20260505112332 13 323 0.0 0.0 0.00 0.00 0.00 85 1016.0
20260505111827 13 330 1.6 1.6 0.00 0.00 0.00 84 1016.0
20260505111323 13 336 0.0 0.0 0.00 0.00 0.00 84 1016.0
20260505110819 14 323 0.0 0.0 0.00 0.00 0.00 83 1016.0
20260505110317 14 335 0.0 0.0 0.00 0.00 0.00 83 1015.6
20260505101751 14 330 0.0 0.0 0.00 0.00 0.00 81 1016.0
20260505101247 14 332 0.0 0.0 0.00 0.00 0.00 81 1016.0
20260505100743 15 340 0.0 0.0 0.00 0.00 0.00 81 1016.0
20260505100240 15 341 0.0 0.0 0.00 0.00 0.00 80 1016.3
20260505095736 15 342 0.0 0.0 0.00 0.00 0.00 79 1016.0
20260505095234 15 338 0.0 0.0 0.00 0.00 0.00 79 1016.0
20260505094729 15 334 0.0 0.0 0.00 0.00 0.00 78 1016.0
20260505094226 15 337 0.0 0.0 0.00 0.00 0.00 78 1016.3
20260505093722 15 315 1.6 1.6 0.00 0.00 0.00 77 1016.6
20260505093220 15 317 0.0 1.6 0.00 0.00 0.00 77 1016.3
20260505092716 15 335 0.0 0.0 0.00 0.00 0.00 77 1016.3
20260505092215 15 328 0.0 0.0 0.00 0.00 0.00 77 1016.6
20260505091712 15 331 0.0 0.0 0.00 0.00 0.00 77 1016.6
20260505091210 15 338 0.0 0.0 0.00 0.00 0.00 76 1016.6
20260505090707 15 338 0.0 0.0 0.00 0.00 0.00 75 1016.6
20260505090205 15 343 0.0 0.0 0.00 0.00 0.00 75 1016.6
20260505085702 15 340 0.0 0.0 0.00 0.00 0.00 76 1016.6
20260505085200 15 308 0.0 0.0 0.00 0.00 0.00 78 1016.6
20260505084657 15 336 0.0 0.0 0.00 0.00 0.00 79 1016.6
20260505084156 15 336 0.0 0.0 0.00 0.00 0.00 80 1017.0
20260505083653 14 332 0.0 0.0 0.00 0.00 0.00 81 1017.0
20260505083149 14 343 0.0 0.0 0.00 0.00 0.00 82 1017.0
20260505082646 14 339 0.0 0.0 0.00 0.00 0.00 84 1016.6
20260505082143 14 339 0.0 0.0 0.00 0.00 0.00 84 1017.0
20260505081638 15 340 0.0 0.0 0.00 0.00 0.00 85 1017.0
20260505081136 15 340 0.0 0.0 0.00 0.00 0.00 85 1016.6
20260505080633 15 338 0.0 0.0 0.00 0.00 0.00 85 1017.0
20260505080129 15 341 0.0 0.0 0.00 0.00 0.00 85 1017.0
20260505075625 15 339 0.0 0.0 0.00 0.00 0.00 85 1017.0
20260505075122 15 338 0.0 0.0 0.00 0.00 0.00 85 1017.0
20260505074619 15 304 0.0 0.0 0.00 0.00 0.00 85 1017.3
20260505074116 15 325 0.0 0.0 0.00 0.00 0.00 85 1017.3
20260505073614 15 341 0.0 0.0 0.00 0.00 0.00 86 1017.3
20260505073112 15 341 0.0 0.0 0.00 0.00 0.00 86 1017.3
20260505072607 15 346 0.0 0.0 0.00 0.00 0.00 86 1017.3
20260505072104 15 336 0.0 0.0 0.00 0.00 0.00 86 1017.3
20260505071559 15 340 0.0 0.0 0.00 0.00 0.00 86 1017.0
20260505071057 15 336 0.0 0.0 0.00 0.00 0.00 86 1017.3
20260505070554 15 308 1.6 1.6 0.00 0.00 0.00 86 1017.3
20260505070050 15 266 1.6 3.2 0.00 0.00 0.00 85 1017.3
20260505065546 15 286 0.0 1.6 0.00 0.00 0.00 85 1017.0
20260505065043 15 306 0.0 0.0 0.00 0.00 0.00 85 1017.0
20260505064540 15 339 0.0 1.6 0.00 0.00 0.00 85 1017.3
20260505064038 15 312 0.0 1.6 0.00 0.00 0.00 85 1017.3
20260505063535 15 340 0.0 0.0 0.00 0.00 0.00 86 1017.0
20260505063031 15 330 0.0 1.6 0.00 0.00 0.00 86 1017.3
20260505062528 15 331 0.0 1.6 0.00 0.00 0.00 86 1017.3
20260505062025 15 340 0.0 0.0 0.00 0.00 0.00 86 1017.6
20260505061523 15 339 0.0 1.6 0.00 0.00 0.00 86 1017.0
20260505061021 15 339 0.0 3.2 0.00 0.00 0.00 86 1017.3
20260505060518 15 272 4.8 4.8 0.00 0.00 0.00 86 1017.3
20260505060014 15 318 1.6 3.2 0.00 0.00 0.00 86 1017.3
20260505055510 15 335 0.0 1.6 0.00 0.00 0.00 86 1017.3
20260505055007 15 258 1.6 3.2 0.00 0.00 0.00 85 1017.3
20260505054504 15 331 0.0 4.8 0.00 0.00 0.00 85 1017.3
20260505054002 15 297 3.2 3.2 0.00 0.00 0.00 84 1017.6
20260505053459 15 323 0.0 0.0 0.00 0.00 0.00 84 1017.6
20260505052955 15 328 0.0 0.0 0.00 0.00 0.00 84 1017.3
20260505052453 15 258 0.0 1.6 0.00 0.00 0.00 84 1017.3
20260505051950 15 313 1.6 3.2 0.00 0.00 0.00 84 1017.3
20260505051446 15 303 1.6 1.6 0.00 0.00 0.00 84 1017.3
20260505050945 15 325 0.0 0.0 0.00 0.00 0.00 84 1017.6
20260505050443 15 317 0.0 3.2 0.00 0.00 0.00 84 1017.6
20260505041410 15 305 1.6 1.6 0.00 0.00 0.00 82 1017.6
20260505040907 15 281 1.6 3.2 0.00 0.00 0.00 82 1017.6
20260505040405 15 326 1.6 3.2 0.00 0.00 0.00 81 1017.6
20260505035901 15 334 1.6 3.2 0.00 0.00 0.00 80 1017.6
20260505035357 15 334 1.6 3.2 0.00 0.00 0.00 79 1017.6
20260505034855 15 296 3.2 4.8 0.00 0.00 0.00 78 1017.6
20260505034351 15 305 1.6 3.2 0.00 0.00 0.00 78 1017.6
20260505033848 15 290 4.8 6.4 0.00 0.00 0.00 77 1017.3
20260505033345 15 217 3.2 6.4 0.00 0.00 0.00 77 1017.3
20260505032844 15 304 3.2 6.4 0.00 0.00 0.00 77 1017.3
20260505032340 15 331 0.0 3.2 0.00 0.00 0.00 77 1017.6
20260505031837 15 359 1.6 3.2 0.00 0.00 0.00 75 1017.3
20260505031333 15 342 0.0 9.7 0.00 0.00 0.00 75 1017.3
20260505030831 15 326 1.6 4.8 0.00 0.00 0.00 75 1017.3
20260505030326 15 64 0.0 3.2 0.00 0.00 0.00 75 1017.3
20260505025822 15 301 1.6 4.8 0.00 0.00 0.00 75 1017.3
20260505025320 15 265 3.2 9.7 0.00 0.00 0.00 74 1017.0
20260505024818 15 6 3.2 6.4 0.00 0.00 0.00 75 1017.0
20260505024315 15 325 1.6 4.8 0.00 0.00 0.00 74 1017.0
20260505023813 15 298 6.4 9.7 0.00 0.00 0.00 75 1017.0
20260505023309 15 272 4.8 11.3 0.00 0.00 0.00 74 1017.0
20260505022807 16 341 1.6 6.4 0.00 0.00 0.00 74 1017.0
20260505022304 15 265 4.8 9.7 0.00 0.00 0.00 74 1017.0
20260505021801 16 293 3.2 9.7 0.00 0.00 0.00 75 1017.0
20260505021257 16 321 6.4 9.7 0.00 0.00 0.00 76 1017.3
20260505020753 16 132 8.0 11.3 0.00 0.00 0.00 76 1017.0
20260505020248 16 263 6.4 11.3 0.00 0.00 0.00 76 1017.0
20260505015746 16 161 6.4 11.3 0.00 0.00 0.00 76 1017.0
20260505015243 16 261 6.4 11.3 0.00 0.00 0.00 77 1017.0
20260505014740 16 232 6.4 9.7 0.00 0.00 0.00 78 1017.0
20260505014237 16 256 6.4 9.7 0.00 0.00 0.00 78 1017.0
20260505013734 16 222 6.4 11.3 0.00 0.00 0.00 78 1017.0
20260505013231 16 284 8.0 12.9 0.00 0.00 0.00 78 1017.0
20260505012729 16 250 4.8 9.7 0.00 0.00 0.00 76 1017.6